| time (UTC) | temp C | wind direction | speed KPH | gust KPH | rain 1hr cm | rain 24hr cm | rain mn cm | humidity % | barometer mb |
| 20260503184601 | 26 | 230 | 4.8 | 8.0 | 0.00 | 0.00 | 0.00 | 38 | 1010.9 |
| 20260503183032 | 25 | 173 | 1.6 | 8.0 | 0.00 | 0.00 | 0.00 | 40 | 1011.0 |
| 20260503181515 | 25 | 319 | 1.6 | 9.7 | 0.00 | 0.00 | 0.00 | 43 | 1011.1 |
| 20260503180053 | 25 | 283 | 0.0 | 8.0 | 0.00 | 0.00 | 0.00 | 43 | 1011.3 |
| 20260503174545 | 23 | 60 | 3.2 | 9.7 | 0.00 | 0.00 | 0.00 | 45 | 1011.4 |
| 20260503173013 | 23 | 84 | 3.2 | 9.7 | 0.00 | 0.00 | 0.00 | 46 | 1011.5 |
| 20260503171549 | 22 | 18 | 3.2 | 12.9 | 0.00 | 0.00 | 0.00 | 47 | 1011.6 |
| 20260503081539 | 13 | 181 | 0.0 | 0.0 | 0.00 | 0.00 | 0.00 | 87 | 1012.6 |
| 20260503071533 | 13 | 181 | 0.0 | 0.0 | 0.00 | 0.00 | 0.00 | 85 | 1012.6 |
| 20260503070111 | 14 | 181 | 0.0 | 0.0 | 0.00 | 0.00 | 0.00 | 84 | 1012.6 |
| 20260503060103 | 15 | 181 | 0.0 | 0.0 | 0.00 | 0.00 | 0.00 | 81 | 1012.8 |
| 20260503054540 | 15 | 181 | 0.0 | 0.0 | 0.00 | 0.00 | 0.00 | 80 | 1012.7 |
| 20260503053045 | 16 | 181 | 0.0 | 3.2 | 0.00 | 0.00 | 0.00 | 79 | 1012.5 |
| 20260503051515 | 16 | 181 | 0.0 | 4.8 | 0.00 | 0.00 | 0.00 | 77 | 1012.5 |
| 20260503050029 | 16 | 343 | 0.0 | 4.8 | 0.00 | 0.00 | 0.00 | 75 | 1012.5 |
| 20260503044508 | 17 | 76 | 1.6 | 11.3 | 0.00 | 0.00 | 0.00 | 75 | 1012.9 |
| 20260503043026 | 16 | 22 | 1.6 | 8.0 | 0.00 | 0.00 | 0.00 | 76 | 1012.2 |
| 20260503041523 | 16 | 9 | 1.6 | 3.2 | 0.00 | 0.00 | 0.00 | 76 | 1012.3 |
| 20260503040046 | 16 | 4 | 0.0 | 1.6 | 0.00 | 0.00 | 0.00 | 76 | 1012.6 |
| 20260503034517 | 17 | 4 | 0.0 | 1.6 | 0.00 | 0.00 | 0.00 | 74 | 1012.7 |
| 20260503033003 | 17 | 4 | 1.6 | 3.2 | 0.00 | 0.00 | 0.00 | 73 | 1012.5 |
| 20260503031530 | 17 | 4 | 3.2 | 6.4 | 0.00 | 0.00 | 0.00 | 72 | 1012.4 |
| 20260503030057 | 17 | 15 | 4.8 | 8.0 | 0.00 | 0.00 | 0.00 | 72 | 1012.2 |
| 20260503024515 | 17 | 60 | 1.6 | 4.8 | 0.00 | 0.00 | 0.00 | 71 | 1012.4 |
| 20260503023051 | 17 | 166 | 3.2 | 8.0 | 0.00 | 0.00 | 0.00 | 71 | 1012.7 |
| 20260503021536 | 18 | 196 | 4.8 | 22.5 | 0.00 | 0.00 | 0.00 | 70 | 1012.7 |
| 20260503020011 | 19 | 220 | 3.2 | 16.1 | 0.00 | 0.00 | 0.00 | 68 | 1012.7 |
| 20260503014532 | 20 | 162 | 3.2 | 8.0 | 0.00 | 0.00 | 0.00 | 64 | 1012.0 |
| 20260503013048 | 20 | 158 | 0.0 | 4.8 | 0.00 | 0.00 | 0.00 | 64 | 1011.9 |
| 20260503011530 | 20 | 220 | 0.0 | 8.0 | 0.00 | 0.00 | 0.00 | 64 | 1011.8 |
| 20260503010046 | 20 | 253 | 0.0 | 6.4 | 0.00 | 0.00 | 0.00 | 64 | 1011.8 |
| 20260503004505 | 20 | 183 | 3.2 | 8.0 | 0.00 | 0.00 | 0.00 | 63 | 1011.8 |
| 20260503003039 | 20 | 174 | 0.0 | 8.0 | 0.00 | 0.00 | 0.00 | 63 | 1011.7 |
| 20260503001512 | 20 | 179 | 4.8 | 11.3 | 0.00 | 0.00 | 0.00 | 63 | 1011.7 |
| 20260503000048 | 20 | 148 | 4.8 | 12.9 | 0.00 | 0.00 | 0.00 | 62 | 1011.8 |
| 20260502234531 | 20 | 179 | 1.6 | 14.5 | 0.00 | 0.00 | 0.00 | 61 | 1011.8 |
| 20260502233043 | 21 | 193 | 6.4 | 11.3 | 0.00 | 0.00 | 0.00 | 58 | 1012.1 |
| 20260502231517 | 21 | 295 | 0.0 | 11.3 | 0.00 | 0.00 | 0.00 | 57 | 1012.1 |
| 20260502230037 | 20 | 297 | 1.6 | 8.0 | 0.00 | 0.00 | 0.00 | 59 | 1012.2 |
| 20260502224554 | 20 | 198 | 3.2 | 6.4 | 0.00 | 0.00 | 0.00 | 59 | 1012.4 |
| 20260502223034 | 20 | 201 | 1.6 | 11.3 | 0.00 | 0.00 | 0.00 | 59 | 1012.6 |
| 20260502221550 | 20 | 185 | 3.2 | 8.0 | 0.00 | 0.00 | 0.00 | 61 | 1012.9 |
| 20260502220034 | 18 | 8 | 4.8 | 14.5 | 0.00 | 0.00 | 0.00 | 62 | 1013.1 |
| 20260502214554 | 18 | 195 | 1.6 | 12.9 | 0.00 | 0.00 | 0.00 | 63 | 1013.3 |
| 20260502213049 | 18 | 68 | 1.6 | 6.4 | 0.00 | 0.00 | 0.00 | 62 | 1013.5 |
| 20260502211518 | 18 | 179 | 4.8 | 9.7 | 0.00 | 0.00 | 0.00 | 62 | 1013.7 |
| 20260502210042 | 17 | 220 | 4.8 | 8.0 | 0.00 | 0.00 | 0.00 | 66 | 1013.9 |
| 20260502204605 | 16 | 331 | 3.2 | 9.7 | 0.00 | 0.00 | 0.00 | 68 | 1014.3 |
| 20260502204502 | 16 | 337 | 3.2 | 9.7 | 0.00 | 0.00 | 0.00 | 68 | 1014.3 |
| 20260502203024 | 16 | 299 | 1.6 | 9.7 | 0.00 | 0.00 | 0.00 | 71 | 1014.6 |
| 20260502201512 | 16 | 270 | 3.2 | 9.7 | 0.00 | 0.00 | 0.00 | 67 | 1014.8 |
| 20260502200018 | 15 | 266 | 1.6 | 12.9 | 0.00 | 0.00 | 0.00 | 72 | 1015.0 |
| 20260502194548 | 15 | 318 | 1.6 | 11.3 | 0.00 | 0.00 | 0.00 | 72 | 1015.0 |
| 20260502193004 | 15 | 186 | 3.2 | 6.4 | 0.00 | 0.00 | 0.00 | 73 | 1015.0 |
| 20260502191541 | 13 | 18 | 1.6 | 6.4 | 0.00 | 0.00 | 0.00 | 75 | 1015.4 |
| 20260502190050 | 13 | 289 | 0.0 | 4.8 | 0.00 | 0.00 | 0.00 | 76 | 1015.7 |